Wind_Speed
1 0 0 1 1 1 0 1 1 1 1 1 1 1 1 0 0 0 0 0 1 1 1 2 2 1 1 1 1 0 0 1 1 2 2 2 2 2 3 4 4 4 5
1 1 1 1 1 1 1 0 1 1 1 1 1 1 1 0 0 1 1 0 0 1 1 2 2 2 1 1 0 0 1 2 2 2 2 2 2 3 3 4 4 4 6
2 2 2 2 2 1 1 1 1 1 2 2 2 2 1 1 0 0 1 1 1 1 2 2 2 2 1 1 1 1 2 2 2 2 1 2 3 3 4 4 5 5 6
3 3 2 2 2 2 2 2 2 2 2 2 2 2 2 1 1 1 2 1 2 2 2 2 3 2 2 2 2 2 2 2 2 2 2 3 3 4 5 5 5 5 6
4 4 3 3 3 3 3 3 3 3 3 3 3 3 2 2 2 2 2 2 2 2 2 2 2 2 2 2 3 3 3 3 3 3 3 4 4 5 5 5 6 6 6
5 5 5 4 4 4 4 4 4 4 3 4 3 3 3 3 3 3 3 3 2 2 3 3 3 3 3 3 4 4 4 4 4 4 4 5 5 6 5 5 6 6 6
6 6 5 5 5 5 5 5 5 4 4 4 4 4 4 4 4 4 4 4 3 4 4 3 3 4 4 4 5 5 4 4 5 5 5 5 5 6 6 6 6 6 7
6 6 6 6 6 6 6 6 6 5 5 5 4 5 5 4 4 4 4 4 4 4 5 4 4 5 5 5 5 5 5 5 5 6 6 6 5 6 6 6 7 7 7
7 7 7 7 7 7 7 7 6 6 6 6 6 6 6 5 5 4 4 5 4 4 4 5 5 5 5 5 5 6 6 6 6 6 6 6 6 7 6 7 7 8 8
8 7 8 7 8 7 7 7 7 7 6 7 7 7 7 6 5 5 5 4 5 5 5 5 5 6 5 5 5 6 6 6 7 7 7 7 7 8 8 8 8 9 9
8 8 8 8 8 8 7 8 7 7 7 8 8 8 7 7 6 5 5 5 5 5 5 6 6 6 6 6 6 6 7 7 7 8 8 8 8 8 8 8 9 9 9
9 9 9 9 9 8 8 8 8 8 8 8 8 8 7 7 6 6 6 6 6 6 6 6 6 7 7 6 7 7 7 8 8 8 9 8 8 8 8 8 8 8 8
9 9 9 9 9 9 9 9 9 9 8 8 8 8 7 6 6 6 6 6 6 6 6 6 7 7 7 7 7 8 7 8 9 9 9 8 9 9 8 8 8 8 9
9 9 9 9 10 10 9 9 9 9 9 8 8 8 6 6 5 6 6 6 7 7 7 7 7 7 7 7 8 8 8 8 8 8 8 8 9 9 9 9 9 9 9
9 9 9 10 10 10 9 10 10 10 9 8 8 7 7 7 6 6 7 7 8 7 7 7 7 7 7 8 8 8 8 8 9 9 9 8 9 9 9 9 9 9 9
9 10 10 10 10 10 10 10 9 9 8 8 8 8 8 8 7 8 7 7 8 7 7 7 7 7 8 8 8 8 8 8 8 8 9 9 9 9 9 9 9 9 9
9 10 10 10 10 9 10 10 10 10 9 9 9 9 9 8 8 8 7 8 8 8 8 7 7 8 8 8 8 8 9 9 9 9 9 9 9 9 10 10 10 10 9
10 10 11 10 10 10 10 10 10 11 10 10 9 9 9 9 9 9 8 8 9 9 8 8 8 8 8 8 8 9 9 9 10 9 9 9 10 10 10 10 11 11 10
9 9 10 10 9 9 9 10 9 9 9 9 9 9 9 9 10 10 9 9 9 9 9 9 9 9 9 9 9 9 9 9 9 9 9 10 10 10 11 11 10 11 11
9 9 9 9 8 8 9 8 8 7 8 8 8 9 10 10 10 10 10 9 9 10 10 9 9 8 9 9 9 9 10 9 10 10 10 10 10 11 11 11 11 11 11
10 9 9 9 8 8 8 8 8 8 8 9 9 9 9 10 10 10 10 10 10 10 10 10 9 9 10 9 9 9 9 10 10 10 11 11 11 12 12 12 12 12 12
9 9 9 9 8 9 9 8 8 8 9 9 9 9 9 9 10 11 10 10 10 10 10 10 10 10 10 10 10 11 11 10 10 11 11 12 12 12 12 12 12 12 12
9 9 9 9 9 8 8 8 8 9 9 9 9 8 8 9 9 10 10 10 10 10 11 11 11 11 11 11 11 12 12 11 12 12 12 12 12 12 12 13 12 12 13
10 10 10 10 9 9 10 10 10 9 10 9 9 9 9 9 9 10 10 11 11 11 11 11 11 12 12 12 12 12 13 13 13 13 13 13 13 12 12 12 13 13 13
10 11 10 10 10 10 11 11 10 11 11 10 10 9 10 10 10 10 11 11 11 11 11 11 12 12 12 13 13 13 14 14 15 14 14 14 14 13 13 13 14 13 14
10 11 11 11 11 11 11 11 11 11 11 11 10 10 11 11 10 11 11 11 10 10 11 11 12 12 13 13 14 14 14 15 15 15 15 14 14 14 14 15 15 15 15
Wind_Direction
185 127 35 36 22 32 26 68 64 34 2 8 44 357 358 5 100 281 340 221 164 166 179 182 172 162 155 149 143 144 341 343 314 304 258 236 241 244 259 251 248 255 253
232 241 244 279 332 17 355 333 8 359 354 350 348 341 3 8 51 349 312 258 199 181 191 181 175 176 169 165 214 278 292 301 323 326 262 247 251 258 252 255 263 254 252
246 262 270 274 291 333 338 311 309 326 335 342 341 329 330 326 346 338 327 287 250 227 213 205 197 200 207 232 262 275 285 299 308 316 291 270 260 262 267 269 268 265 255
247 253 263 267 284 300 311 317 300 303 308 311 315 314 313 301 313 307 308 302 265 248 238 221 222 210 228 248 266 273 274 275 279 280 276 284 281 273 274 275 266 271 262
250 252 262 269 278 284 297 303 308 304 300 301 303 299 297 295 289 290 299 286 277 266 255 242 236 235 242 253 265 271 275 272 270 270 270 274 276 275 281 278 267 270 269
255 258 264 269 268 271 283 293 301 296 295 296 303 301 299 299 302 293 289 281 280 290 283 265 260 257 247 256 266 268 266 265 268 273 274 275 276 275 276 278 281 272 274
257 259 264 270 266 265 273 280 289 291 287 287 291 300 299 293 289 295 286 275 269 278 273 267 266 267 265 263 267 261 258 264 270 275 281 282 278 275 274 277 282 280 279
255 258 265 272 266 265 275 284 285 290 289 291 299 300 299 301 300 294 292 279 278 278 270 273 270 263 265 271 270 265 266 267 270 275 280 282 282 280 277 275 277 280 279
254 254 261 270 270 271 274 278 282 288 291 295 295 293 292 295 297 297 291 281 281 281 281 278 271 270 269 276 274 268 263 266 274 279 279 280 284 283 278 277 276 277 280
258 260 266 270 275 275 275 280 281 286 287 294 292 293 291 288 290 291 285 283 287 285 281 281 280 275 274 276 273 269 267 268 273 276 276 276 281 282 280 278 276 276 280
263 267 271 276 281 278 276 282 284 282 284 289 289 289 286 282 280 283 282 283 284 285 286 285 283 281 278 278 276 273 271 271 273 274 275 274 280 283 283 282 280 280 280
265 269 271 277 282 285 281 279 283 282 289 288 286 285 281 278 280 279 279 280 280 281 284 283 282 283 282 281 280 278 277 274 277 277 277 275 276 278 282 283 281 280 282
266 271 276 279 279 282 284 284 285 285 287 287 287 285 282 281 281 279 280 282 281 281 280 282 286 287 286 285 284 282 281 278 276 277 276 272 272 273 276 280 281 278 279
271 276 282 290 283 282 284 284 285 285 283 286 288 281 280 280 279 276 277 277 277 280 280 282 285 287 287 288 288 284 282 281 278 276 274 273 271 272 274 279 282 278 277
273 277 281 286 288 287 287 286 284 285 285 283 282 279 280 277 278 279 279 281 281 281 280 282 283 284 286 287 286 287 288 286 279 276 274 274 277 277 274 279 286 283 279
277 280 283 283 286 286 286 285 284 284 283 281 281 281 284 281 282 284 285 287 286 284 280 280 280 284 287 288 287 286 287 289 286 282 279 276 276 275 277 282 285 284 285
280 283 284 286 287 287 286 285 282 283 282 279 276 280 281 280 283 286 284 285 285 285 281 280 279 283 287 289 289 287 287 286 287 286 286 281 280 279 279 281 279 280 280
281 285 285 286 288 288 289 288 284 281 283 284 283 284 279 276 276 279 282 285 285 282 278 278 278 284 286 286 286 288 292 291 288 288 286 287 285 281 279 283 280 278 279
282 287 289 288 290 288 289 290 291 286 284 285 288 289 287 284 278 279 284 285 284 281 278 278 279 284 285 286 287 290 294 291 289 288 287 285 285 284 283 285 283 282 284
286 290 293 293 296 296 294 294 295 292 286 283 285 287 287 285 280 279 283 283 283 282 280 279 281 283 285 286 288 291 294 292 287 283 284 284 284 283 283 286 285 286 286
285 287 289 291 294 296 297 294 289 289 289 286 283 283 286 286 283 280 279 281 282 280 278 279 279 282 286 289 290 294 296 294 290 289 289 288 285 281 281 282 281 282 283
292 290 290 293 296 293 293 293 290 290 291 291 290 286 285 283 281 280 280 278 277 273 273 276 278 282 288 289 289 291 292 292 291 292 293 293 291 288 285 286 286 284 283
295 295 294 292 295 297 299 296 293 296 294 292 288 287 286 287 284 282 279 278 276 272 273 277 278 282 287 288 289 290 290 290 288 290 294 294 292 290 286 285 286 286 286
293 294 295 294 296 297 298 294 292 292 293 293 290 286 285 286 283 282 280 278 277 276 276 277 278 283 285 287 289 288 289 289 289 290 291 293 293 289 285 284 287 285 286
295 293 294 295 294 295 295 293 286 286 289 290 288 285 285 285 284 283 282 280 281 279 279 280 282 284 286 287 290 288 289 290 288 289 289 290 291 288 285 285 284 285 285
296 296 295 295 293 293 294 291 287 286 285 285 285 284 286 285 284 284 284 282 282 281 282 282 284 287 288 289 291 291 290 289 287 287 289 290 289 287 285 287 284 284 284
Height
5882 5882 5882 5882 5882 5881 5881 5881 5881 5881 5880 5880 5880 5880 5880 5879 5879 5879 5879 5878 5878 5878 5879 5879 5879 5879 5879 5880 5880 5880 5880 5880 5880 5880 5880 5881 5881 5882 5883 5883 5884 5885 5885
5882 5882 5882 5882 5881 5881 5881 5881 5881 5881 5880 5880 5880 5879 5879 5879 5879 5879 5879 5878 5878 5878 5879 5879 5879 5879 5879 5880 5880 5880 5880 5880 5880 5880 5880 5881 5881 5882 5882 5883 5883 5884 5884
5882 5882 5882 5881 5881 5881 5881 5881 5881 5880 5880 5879 5879 5879 5879 5879 5879 5879 5879 5878 5878 5878 5878 5879 5879 5879 5879 5880 5880 5880 5880 5880 5880 5880 5880 5880 5881 5881 5881 5882 5883 5883 5884
5881 5881 5881 5881 5881 5881 5881 5881 5880 5880 5880 5879 5879 5879 5879 5879 5879 5879 5879 5878 5878 5878 5878 5878 5878 5879 5879 5879 5879 5879 5879 5879 5880 5880 5880 5880 5880 5880 5881 5881 5881 5882 5882
5881 5881 5881 5881 5881 5881 5880 5880 5880 5880 5879 5879 5879 5879 5879 5878 5878 5878 5878 5878 5878 5878 5878 5878 5878 5878 5879 5879 5879 5879 5879 5879 5879 5879 5879 5879 5879 5880 5880 5880 5881 5881 5881
5880 5880 5880 5880 5880 5880 5880 5880 5879 5879 5879 5879 5879 5878 5878 5878 5878 5878 5878 5878 5877 5877 5878 5878 5878 5878 5878 5878 5878 5878 5878 5878 5878 5878 5879 5879 5879 5879 5879 5879 5880 5880 5880
5879 5879 5879 5879 5879 5879 5879 5879 5879 5878 5878 5878 5878 5878 5877 5878 5878 5878 5877 5877 5877 5877 5877 5877 5877 5877 5877 5877 5877 5877 5877 5877 5877 5878 5878 5878 5878 5877 5878 5878 5878 5878 5879
5878 5878 5878 5878 5878 5878 5878 5878 5878 5877 5877 5877 5877 5877 5877 5877 5877 5877 5877 5877 5876 5876 5876 5876 5876 5876 5876 5876 5876 5876 5876 5876 5876 5877 5877 5877 5876 5876 5876 5877 5877 5877 5877
5877 5877 5877 5877 5877 5877 5877 5877 5876 5876 5876 5876 5876 5876 5876 5876 5876 5876 5876 5876 5875 5875 5875 5875 5875 5875 5875 5875 5875 5875 5875 5875 5875 5876 5876 5876 5875 5875 5875 5875 5875 5876 5876
5876 5876 5876 5876 5876 5876 5875 5875 5875 5875 5875 5875 5875 5875 5875 5875 5875 5875 5875 5875 5875 5874 5874 5874 5874 5874 5874 5874 5874 5874 5874 5874 5874 5874 5874 5874 5874 5874 5874 5874 5874 5874 5874
5875 5875 5875 5875 5875 5874 5874 5874 5874 5874 5874 5874 5874 5874 5874 5874 5874 5874 5874 5874 5874 5873 5873 5873 5873 5873 5873 5872 5872 5872 5872 5872 5873 5873 5873 5873 5873 5873 5873 5873 5872 5872 5872
5873 5873 5873 5873 5873 5873 5873 5873 5873 5873 5872 5872 5873 5873 5873 5873 5873 5873 5873 5873 5872 5872 5872 5872 5871 5871 5871 5871 5871 5871 5871 5871 5871 5871 5871 5871 5871 5871 5871 5871 5871 5871 5871
5871 5872 5872 5871 5871 5871 5871 5871 5871 5871 5871 5871 5871 5871 5871 5871 5872 5871 5871 5871 5871 5871 5871 5870 5870 5870 5870 5870 5870 5870 5870 5869 5869 5869 5869 5870 5870 5869 5869 5869 5869 5869 5869
5870 5870 5870 5870 5870 5870 5870 5870 5870 5869 5869 5870 5870 5870 5870 5870 5870 5870 5870 5870 5870 5870 5869 5869 5869 5869 5868 5868 5868 5868 5868 5868 5868 5868 5868 5868 5868 5868 5868 5868 5868 5867 5867
5868 5868 5868 5868 5868 5868 5868 5868 5868 5868 5868 5868 5868 5868 5869 5869 5869 5869 5869 5869 5868 5868 5868 5868 5867 5867 5867 5867 5866 5866 5866 5866 5866 5866 5866 5866 5866 5866 5866 5866 5866 5866 5865
5866 5867 5866 5867 5867 5867 5866 5866 5866 5866 5866 5866 5867 5867 5867 5867 5867 5867 5867 5867 5867 5867 5866 5866 5866 5865 5865 5865 5865 5865 5864 5864 5864 5864 5864 5864 5864 5864 5864 5864 5864 5864 5863
5864 5865 5865 5865 5865 5865 5865 5865 5865 5865 5865 5865 5865 5865 5866 5866 5866 5866 5865 5865 5865 5865 5865 5864 5864 5864 5864 5863 5863 5863 5863 5862 5862 5862 5862 5862 5862 5862 5862 5862 5862 5862 5861
5863 5863 5863 5863 5863 5863 5863 5863 5863 5863 5863 5863 5863 5864 5864 5864 5864 5864 5864 5864 5864 5864 5863 5863 5863 5862 5862 5862 5862 5861 5861 5861 5860 5860 5861 5861 5861 5860 5860 5860 5860 5860 5859
5861 5861 5861 5861 5861 5861 5861 5861 5861 5861 5861 5861 5861 5861 5862 5862 5862 5862 5862 5862 5862 5862 5861 5861 5861 5861 5860 5860 5860 5860 5859 5859 5859 5858 5859 5859 5858 5858 5858 5858 5858 5857 5857
5859 5859 5859 5859 5859 5859 5859 5859 5859 5859 5860 5860 5859 5859 5859 5859 5859 5860 5860 5860 5860 5860 5859 5859 5859 5859 5859 5858 5858 5858 5857 5857 5857 5856 5856 5856 5856 5856 5856 5855 5855 5855 5854
5858 5858 5858 5858 5858 5858 5858 5858 5858 5858 5858 5858 5858 5857 5857 5857 5857 5857 5858 5858 5858 5858 5857 5857 5857 5857 5857 5856 5856 5856 5855 5855 5855 5854 5854 5854 5853 5853 5853 5853 5853 5852 5852
5856 5856 5856 5856 5856 5856 5856 5856 5856 5856 5856 5856 5856 5855 5855 5855 5855 5855 5855 5855 5855 5855 5855 5855 5855 5855 5854 5854 5854 5854 5854 5854 5853 5852 5852 5851 5851 5850 5850 5850 5850 5849 5849
5855 5855 5855 5855 5855 5854 5854 5854 5854 5854 5854 5854 5854 5854 5853 5853 5853 5853 5853 5853 5853 5853 5853 5852 5852 5852 5852 5852 5851 5851 5851 5851 5850 5850 5849 5849 5848 5848 5848 5847 5847 5847 5846
5853 5853 5853 5853 5853 5853 5852 5852 5852 5852 5852 5852 5852 5852 5852 5851 5851 5851 5851 5851 5851 5850 5850 5850 5850 5850 5849 5849 5849 5848 5848 5848 5848 5847 5847 5846 5845 5845 5845 5844 5844 5843 5843
5851 5851 5851 5851 5851 5851 5850 5850 5850 5850 5850 5850 5849 5849 5849 5849 5849 5849 5848 5848 5848 5848 5848 5848 5847 5847 5847 5847 5846 5845 5845 5844 5844 5844 5843 5843 5842 5842 5841 5841 5841 5840 5839
5849 5849 5849 5849 5848 5848 5848 5848 5848 5848 5847 5847 5847 5847 5847 5847 5846 5846 5846 5845 5845 5845 5845 5845 5845 5844 5844 5844 5843 5842 5842 5841 5840 5840 5840 5839 5839 5839 5838 5838 5837 5836 5836